Location: Bruderhein
(53.8035°N, 112.9265°W)
Time: 12:00:30
(UTC+00:00)

DIWATA 2B (PO-101) - Pass Details

Date: 27 March 2023
Orbit: 581 x 593 km, 98.0° (Epoch: 30 May)

Event Time Altitude Azimuth Distance (km) Brightness Sun altitude
Exits shadow 09:14:50 33° 18° (NNE) 992 ? -30.1°
Drops below altitude 10° 09:17:25 10° 355° (N) 1,914 ? -29.9°
Sets 09:19:38 0° 349° (N) 2,819 ? -29.7°
